Regional Weather Roundup
Issued by NWS

Home | Current Version | Previous Version | Graphics & Text | Print | Product List | Glossary On
Versions: 1 2 3 4 5 6 7 8 9 10 11 12 13 14 15 16 17 18 19 20 21 22 23 24 25 26 27 28 29 30 31 32 33 34 35 36 37 38 39 40 41 42 43 44 45 46 47 48 49 50
000
ASUS45 KBOU 291907
RWRCO

WEATHER ROUNDUP FOR COLORADO
NATIONAL WEATHER SERVICE DENVER/BOULDER CO
100 PM MDT WED MAR 29 2017

NOTE: "FAIR" INDICATES FEW OR NO CLOUDS BELOW 12000 FEET WITH NO
SIGNIFICANT WEATHER AND/OR OBSTRUCTIONS TO VISIBILITY.

COZ001>005-013-030-031-292000-
...NORTHWEST COLORADO...

CITY           SKY/WX    TMP DP  RH WIND       PRES   REMARKS
CRAIG          PTSUNNY   45  30  55 W12G20    30.17F
HAYDEN         PTSUNNY   43  25  49 SW9       30.16F
MEEKER         PTSUNNY   45  32  60 VRB5      30.17F
MOUNT WERNER   NOT AVBL
STEAMBOAT SPGS PTSUNNY   42  29  60 W6        30.15F
WALDEN         NOT AVBL
$$

COZ006>008-011-292000-
...WEST CENTRAL VALLEYS...

CITY           SKY/WX    TMP DP  RH WIND       PRES   REMARKS
GRAND JUNCTION FAIR      58  28  32 W10G16    30.11F
MONTROSE       FAIR      51  32  48 CALM      30.13F
EAGLE          SUNNY     48  25  40 CALM      30.12F
RIFLE          FAIR      54  27  35 NW13      30.12F
DELTA          FAIR      59  29  32 SW18      30.10F
NUCLA          FAIR      54  25  32 N6        30.13F
$$

COZ017>023-064>068-292000-
...SOUTHWEST COLORADO...

CITY           SKY/WX    TMP DP  RH WIND       PRES   REMARKS
DURANGO        FAIR      56  31  38 SW13      29.99F
CORTEZ         FAIR      57  26  30 N13       30.04F
PAGOSA SPRINGS FAIR      52  20  28 NW8G32    30.02F
TELLURIDE      FAIR      39  26  58 W7        30.16S
WOLF CREEK PAS   N/A     27  27 100 N5        30.17S WCI  21
$$

COZ009-010-012-014-032>034-037-058>063-292000-
...CENTRAL COLORADO...

CITY           SKY/WX    TMP DP  RH WIND       PRES   REMARKS
ASPEN          FAIR      46  24  42 NW14      30.11F
BUENA VISTA    FAIR      49  14  24 NW25G31   30.04F
COPPER MTN     PTSUNNY   27  21  80 MISG      30.15F
BERTHOUD PASS  PTSUNNY   18   7  62 N12G32    30.13F WCI   5
COTTONWOOD PAS FAIR      41  21  45 CALM      30.09F
GUNNISON       FAIR      46  24  42 W12       30.09F
KREMMLING      FAIR      54  25  32 N6        30.12F
LEADVILLE      FAIR      34  14  43 N14G28    30.10F WCI  25
MONARCH PASS   PTSUNNY   27  25  93 W13       30.23F WCI  16
SALIDA         FAIR      52  19  27 N15G26    30.10F
SUNLIGHT       FAIR      28  23  80 NW7       30.22F WCI  21
WILKERSON PASS FAIR      28  27  93 NE8       30.12F WCI  20
$$

COZ069>075-292000-
...SAN LUIS VALLEY/SANGRE DE CRISTO MOUNTAINS...

CITY           SKY/WX    TMP DP  RH WIND       PRES   REMARKS
ALAMOSA        CLOUDY    48  23  37 N18G32    30.00F
LA VETA PASS   NOT AVBL
SAGUACHE       PTSUNNY   50  23  34 NW22      30.03F
$$

COZ035-036-038>040-292000-
...NORTHERN COLORADO FRONT RANGE...

CITY           SKY/WX    TMP DP  RH WIND       PRES   REMARKS
DENVER INTL AP PTSUNNY   46  35  65 N17       30.04F
DMNS CITY PARK   N/A     50  33  51 NW7G23    30.04F
AURORA         PTSUNNY   46  38  72 N16       30.05F
FRONT RANGE AP CLOUDY    46  39  76 NW17      30.05F
ERIE MUNI ARPT FAIR      53  35  50 N12G17    30.05F
BOULDER MUN AP FAIR      52  34  50 NE8G16    30.04F
CENTENNIAL     PTSUNNY   47  35  63 N16       30.05F
BROOMFIELD     PTSUNNY   52  36  54 N12       30.06F
FORT COLLINS   PTSUNNY   53  31  42 N16       30.05F
LONGMONT       FAIR      56  32  40 E7        30.06F
$$

COZ041-046-047-076>085-087-088-292000-
...PIKES PEAK/PALMER DIVIDE AND SOUTHERN FOOTHILLS...

CITY           SKY/WX    TMP DP  RH WIND       PRES   REMARKS
COLO. SPRINGS  PTSUNNY   47  29  49 NW25G38   30.02F
A. F. ACADEMY  MOSUNNY   42  30  60 N25G33    30.02F
SCHRIEVER AFB  PTSUNNY   43  30  59 N28G41    30.02F
ELLICOTT       CLOUDY   N/A N/A N/A N28G36    29.99F
FALCON         PTSUNNY   40  31  70 N26G33    30.02F
FORT CARSON    MOSUNNY   49  28  45 N26G35    30.00F
LIMON          CLOUDY    42  38  85 N28       30.00F
MONUMENT HILL  CLOUDY    36  32  87 N18G26    30.06F
TRINIDAD       CLOUDY    42  36  79 NW21      30.03F
$$

COZ042>045-048>051-090-091-292000-
...NORTHEAST COLORADO...

CITY           SKY/WX    TMP DP  RH WIND       PRES   REMARKS
GREELEY ARPT   PTSUNNY   53  35  50 N10       30.05F
AKRON          CLOUDY    43  37  79 N21       30.01F
BURLINGTON     CLOUDY    41  39  93 N22G31    29.96F
WRAY           NOT AVBL
STERLING       CLOUDY    46  37  71 N14       30.02F
HOLYOKE        PTSUNNY   46  41  81 N20G26    30.01F
FORT MORGAN    CLOUDY    49  34  57 N17G23    30.03F
$$

COZ086-089-092>099-292000-
...SOUTHEAST COLORADO...

CITY           SKY/WX    TMP DP  RH WIND       PRES   REMARKS
PUEBLO         FAIR      53  36  52 N22G33    30.00F
LA JUNTA       CLOUDY    47  37  68 N20G29    30.01F
LAMAR          CLOUDY    46  37  71 N24G35    29.95S
SPRINGFIELD      N/A     40  38  93 N25G39    29.93S
$$



USA.gov is the U.S. government's official web portal to all federal, state and local government web resources and services.